FW0995 Weather Reports


time (UTC)temp
C
wind
direction
speed
KPH
gust
KPH
rain 1hr
cm
rain 24hr
cm
rain mn
cm
humidity
%
barometer
mb
20191024043115 11 67 0.0 0.0 0.00 0.00 0.00 93 1004.8
20191024041615 11 67 0.0 1.6 0.00 0.00 0.00 92 1004.8
20191024040115 11 45 0.0 3.2 0.00 0.00 0.00 92 1005.5
20191024034615 11 337 0.0 1.6 0.00 0.00 0.00 92 1005.1
20191024033114 12 22 1.6 3.2 0.00 0.00 0.00 92 1005.3
20191024031614 12 45 0.0 1.6 0.00 0.00 0.00 92 1005.3
20191024030114 12 67 0.0 0.0 0.00 0.00 0.00 92 1005.4
20191024024614 12 337 1.6 3.2 0.00 0.00 0.00 92 1005.4
20191024023113 12 67 1.6 4.8 0.00 0.00 0.00 93 1005.7
20191024021614 12 337 0.0 3.2 0.00 0.00 0.00 92 1005.7
20191024020113 11 337 0.0 3.2 0.00 0.00 0.00 92 1005.4
20191024014614 11 247 0.0 3.2 0.00 0.00 0.00 91 1005.7
20191024013112 12 67 0.0 1.6 0.00 0.00 0.00 91 1006.1
20191024011613 12 22 0.0 1.6 0.00 0.00 0.00 91 1006.1
20191024010112 12 22 0.0 0.0 0.00 0.00 0.00 90 1006.2
20191024004612 12 22 0.0 0.0 0.00 0.00 0.00 90 1006.2
20191024003117 12 22 0.0 0.0 0.00 0.00 0.00 91 1006.4
20191024001617 12 337 0.0 3.2 0.00 0.00 0.00 90 1006.4
20191024000116 12 22 0.0 0.0 0.00 0.00 0.00 90 1006.2
20191023234616 12 292 0.0 4.8 0.00 0.00 0.00 90 1006.3
20191023233116 12 67 0.0 1.6 0.00 0.00 0.00 90 1005.7
20191023231616 12 22 0.0 3.2 0.00 0.00 0.00 90 1005.7
20191023230115 12 67 1.6 3.2 0.00 0.00 0.00 90 1005.9
20191023224616 13 45 1.6 3.2 0.00 0.00 0.00 90 1006.1
20191023223115 13 22 3.2 8.0 0.00 0.00 0.00 90 1006.5
20191023221615 12 22 1.6 6.4 0.00 0.00 0.00 90 1006.5
20191023220114 13 360 1.6 4.8 0.00 0.00 0.00 90 1006.8
20191023214615 12 45 1.6 4.8 0.00 0.00 0.00 90 1007.0
20191023213115 12 22 3.2 8.0 0.00 0.00 0.00 90 1006.6
20191023211614 12 90 0.0 1.6 0.00 0.00 0.00 89 1006.6
20191023210114 13 202 1.6 4.8 0.00 0.00 0.00 89 1007.5
20191023204614 13 45 0.0 3.2 0.00 0.00 0.00 89 1007.2
20191023184612 12 22 0.0 0.0 0.00 0.00 0.00 88 1008.4
20191023183116 13 337 0.0 4.8 0.00 0.00 0.00 88 1008.1
20191023181617 13 22 1.6 6.4 0.00 0.00 0.00 88 1008.1
20191023180116 13 67 1.6 4.8 0.00 0.00 0.00 87 1008.4
20191023174616 13 22 1.6 1.6 0.00 0.00 0.00 87 1008.7
20191023173116 13 45 1.6 4.8 0.00 0.00 0.00 86 1008.9
20191023171616 13 22 1.6 3.2 0.00 0.00 0.00 86 1008.9
20191023170115 13 67 3.2 8.0 0.00 0.00 0.00 85 1009.1
20191023164615 13 67 0.0 1.6 0.00 0.00 0.00 84 1009.2
20191023163115 14 135 1.6 3.2 0.00 0.00 0.00 83 1009.1
20191023161615 15 67 3.2 3.2 0.00 0.00 0.00 82 1009.1
20191023160114 15 315 3.2 3.2 0.00 0.00 0.00 81 1009.2
20191023154615 15 67 1.6 4.8 0.00 0.00 0.00 81 1009.5
20191023153114 15 225 0.0 1.6 0.00 0.00 0.00 79 1009.8
20191023151614 16 67 1.6 6.4 0.00 0.00 0.00 78 1009.8
20191023150114 16 67 1.6 4.8 0.00 0.00 0.00 77 1009.9
20191023144614 16 67 1.6 3.2 0.00 0.00 0.00 77 1009.9
20191023143113 16 45 3.2 6.4 0.00 0.00 0.00 76 1010.2
20191023141613 17 45 3.2 4.8 0.00 0.00 0.00 75 1010.2
20191023140113 17 45 3.2 6.4 0.00 0.00 0.00 74 1010.3
20191023134613 17 22 3.2 4.8 0.00 0.00 0.00 73 1010.6
20191023133112 18 112 0.0 0.0 0.00 0.00 0.00 72 1010.9
20191023131613 18 112 0.0 0.0 0.00 0.00 0.00 73 1010.9
20191023130112 18 112 0.0 0.0 0.00 0.00 0.00 73 1011.3
20191023124612 17 112 0.0 0.0 0.00 0.00 0.00 72 1011.8
20191023123111 18 112 0.0 0.0 0.00 0.00 0.00 71 1011.8
20191023121617 18 112 0.0 0.0 0.00 0.00 0.00 72 1011.8
20191023120116 17 112 0.0 0.0 0.00 0.00 0.00 73 1012.2
20191023114616 17 112 0.0 0.0 0.00 0.00 0.00 74 1012.1
20191023113116 17 112 1.6 9.7 0.00 0.00 0.00 74 1012.2
20191023111616 17 90 1.6 4.8 0.00 0.00 0.00 75 1012.2
20191023110115 16 22 1.6 4.8 0.00 0.00 0.00 75 1012.8
20191023104615 16 135 1.6 4.8 0.00 0.00 0.00 75 1013.2
20191023103115 16 315 3.2 8.0 0.00 0.00 0.00 75 1013.8
20191023101615 16 22 1.6 6.4 0.00 0.00 0.00 76 1013.8
20191023100114 16 315 0.0 0.0 0.00 0.00 0.00 75 1014.1
20191023094614 16 90 0.0 1.6 0.00 0.00 0.00 77 1014.2
20191023093114 15 67 0.0 1.6 0.00 0.00 0.00 79 1014.6
20191023091614 15 202 0.0 3.2 0.00 0.00 0.00 79 1014.6
20191023090114 15 247 0.0 0.0 0.00 0.00 0.00 79 1014.9
20191023084614 16 112 0.0 0.0 0.00 0.00 0.00 81 1014.2
20191023083113 14 45 0.0 0.0 0.00 0.00 0.00 87 1014.6
20191023081613 13 67 0.0 0.0 0.00 0.00 0.00 89 1014.6
20191023080113 12 112 0.0 0.0 0.00 0.00 0.00 90 1014.6
20191023074612 11 22 0.0 0.0 0.00 0.00 0.00 90 1014.7
20191023073112 11 45 0.0 0.0 0.00 0.00 0.00 91 1015.1
20191023071612 11 90 0.0 0.0 0.00 0.00 0.00 91 1015.1
20191023070112 11 90 0.0 0.0 0.00 0.00 0.00 92 1015.1
20191023064612 10 90 0.0 0.0 0.00 0.00 0.00 91 1015.1
20191023063111 10 90 0.0 0.0 0.00 0.00 0.00 91 1014.6
20191023061616 10 67 0.0 0.0 0.00 0.00 0.00 91 1014.6
20191023060117 10 67 0.0 0.0 0.00 0.00 0.00 91 1014.9
20191023054616 10 67 0.0 0.0 0.00 0.00 0.00 91 1015.4
20191023053115 11 112 0.0 0.0 0.00 0.00 0.00 91 1015.4
20191023051616 11 112 0.0 0.0 0.00 0.00 0.00 91 1015.4
20191023050115 11 90 0.0 0.0 0.00 0.00 0.00 91 1015.4
20191023044615 11 112 0.0 0.0 0.00 0.00 0.00 91 1015.6